KSGS

Details ICAO KSGS
Name SOUTH ST PAUL MUNI RICHARD E FLEMING
Region United States
Timezone America/Chicago (UTC-5.0)
Plans Departing 13
Arriving 4
Stats Elevation 820 ft / 250 m (AMSL)
Location 44.857134° -93.032852°
Runways 1
Magnetic Variation 0.003° E
Sunrise 2018-05-21 10:38:45 UTC / 2018-05-21 05:38:45 Local
Sunset 2018-05-22 01:41:35 UTC / 2018-05-21 20:41:35 Local
Advertisement - Login to hide

Runways

ID Width Length Bearing (true) Bearing (mag) Surface Threshold Offset Overrun Length
16 100 ft / 30 m 4,003 ft / 1,220 m 162.48° 162.48° Asphalt 0 ft / 0 m 0 ft / 0 m
34 100 ft / 30 m 4,003 ft / 1,220 m 342.48° 342.48° Asphalt 0 ft / 0 m 0 ft / 0 m

Approach Navaids

Runway Type Ident Frequency Range Bearing (true) Bearing (mag) Slope Elevation
34 Localiser ISGS 108.35 MHz 18 nm / 33 km 342.49° 342.48° - 825 ft / 251 m (AMSL)
34 DME ISGS 108.35 MHz 18 nm / 33 km - - - 825 ft / 251 m (AMSL)

Map

Weather


0- 5 10 15 20 25 30 35+ Temperature / ° C

Clouds and Precipitation
Forecast for 2018-05-21 18:00 UTC. Updated 4 hours ago

Ground ~20,000 ft ~40,000 ft Winds

METAR

KSGS 212035Z AUTO 13005KT 10SM BKN033 OVC040 19/10 A3001 RMK AO2 T01920098

TAF

Not found

Frequencies

Recorded 119.42 MHz AWOS 3
Clearance 118.20 MHz CLNC DEL
Unicom 122.70 MHz CTAF/UNICOM
Approach 121.20 MHz MINNEAPOLIS APP/DEP
Warning: Do not use this data for real-world aviation or navigation. No guarantee of current accuracy is given.